Погода в Маринге

Бразилия     23°23′50″S   51°55′31″W
темп.,
°C
ветер,
м/с
пор.,
м/с
влажн.,
%
обл.,
%
осадки,
мм/ч
давл.,
гПа
погр.,
м
27 февраля, сб
сб2700:00+20в414890 0.0 1013485
03:00+18вюв311910 0.0 1012388
06:00+17юв35930 0.0 1013110
09:00+23в58770 0.0 1014745
12:00+27в44631 0.0 10131227
15:00+28вюв336322 0.4 10111279
18:00+25вюв377911 0.7 1009344
21:00+21юв410916 1.0 1011266
28 февраля, вс
вс2800:00+20вюв415880 0.0 1012622
03:00+19вюв312890 0.0 1011512
06:00+18вюв310910 0.0 1012387
09:00+23в69802 0.0 1013752
12:00+26св567644 1.4 10121020
15:00+27всв347143 4.9 10091100
18:00+25в358628 2.6 1008601
21:00+21всв379128 5.4 1010165
1 марта, пн
пн100:00+21всв4129457 3.1 1011338
03:00+20всв4119374 4.3 1010372
06:00+19всв4119320 0.0 1011335
09:00+23св6108310 0.0 1011684
12:00+27ссв57755 1.8 10111060
15:00+28ссв467014 4.8 10081161
18:00+25св478535 2.9 1007533
21:00+22св489166 4.9 1010209
2 марта, вт
вт200:00+21св3792100 0.3 1011181
03:00+21св3794100 2.7 1010176
06:00+20св389370 0.0 1012215
09:00+24ссв598167 0.0 1013624
12:00+28с576759 0.8 10121164
15:00+28с457246 5.6 10101157
18:00+26св2282100 7.3 100956
21:00+23св2389100 7.5 101249
3 марта, ср
ср300:00+21св479275 0.9 1013156
03:00+21св379459 1.9 1013160
06:00+20всв229641 2.0 101378
09:00+24св478970 3.6 1015468
12:00+27ссв467870 7.3 1014816
15:00+29с346884 9.4 10121178
18:00+27ссз2277100 0.7 101040
21:00+23ссв1286100 2.8 101224